KOMPSAT-3A

Last updated on Thu Nov 21 2024 00:02:27 GMT+0000 (Coordinated Universal Time)

1 40536U 15014A 24325.54349527 .00019154 00000+0 69588-3 0 9992 2 40536 97.6328 278.4785 0005395 101.1589 259.0256 15.28320630533519
UTC large
Height (km)
Speed (km/s)
/
Latitude / Longitude
Inclination (degrees)
Orbital Period (minutes)
Azimuth
Elevation
Range (km)
Doppler Factor

Next 0 passes for location: London (51.5072 / 0.1276)

Sorry there are no passes over London.